Medford, OR

9:28 PM PDT on July 20, 2017 (GMT -0700)
Rogue Valley International-Medford

Weather History for KMFR - October, 2012

Change the Weather History Date:

Monday, October 22, 2012

  Actual Average Record
Temperature  
Mean Temperature 48 °F 54 °F  
Max Temperature 54 °F 66 °F 81 °F (1965)
Min Temperature 42 °F 41 °F 28 °F (1953)
Degree Days  
Heating Degree Days 17 12  
Month to date heating degree days 129 169  
Since 1 July heating degree days 130 238  
Cooling Degree Days 0 0  
Month to date cooling degree days 11 8  
Year to date cooling degree days 960 827  
Moisture  
Dew Point 40 °F    
Average Humidity 77    
Maximum Humidity 93    
Minimum Humidity 61    
Precipitation  
Precipitation 0.22 in 0.04 in 1.20 in (1931)
Month to date precipitation 1.31 0.64  
Year to date precipitation 15.43 11.35  
Snow  
Snow 0.00 in 0.00 in - ()
Month to date snowfall 0.0 0.0  
Since 1 July snowfall 0.0 0.0  
Snow Depth 0.00 in    
Sea Level Pressure  
Sea Level Pressure 29.69 in    
Wind  
Wind Speed 4 mph (NNW)    
Max Wind Speed 13 mph    
Max Gust Speed 17 mph    
Visibility 10 miles    
Events Rain    
T = Trace of Precipitation, MM = Missing Value Source: NWS Daily Summary

Daily Weather History Graph

Daily Weather History Graph

Search for Another Location

Airport or City:

Trip Planner

Search our weather history database for the weather conditions in past years. The results will help you decide how hot, cold, wet, or windy it might be!

Date:

Astronomy

Oct. 22, 2012 Rise Set
Actual Time 7:33 AM PDT 6:17 PM PDT
Civil Twilight 7:04 AM PDT 6:46 PM PDT
Nautical Twilight 6:31 AM PDT 7:19 PM PDT
Astronomical Twilight 5:59 AM PDT 7:51 PM PDT
Moon 2:36 PM PDT (10/22) 12:18 AM PDT (10/22)
Length of Visible Light 11h 41m
Length of Day
10h 44m
First Quarter, 57% of the Moon is Illuminated
Oct 22
First Quarter
Oct 29
Full
Nov 6
Last Quarter
Nov 13
New
Nov 20
First Quarter

Hourly Weather History & Observations

Time (PDT) Temp. Windchill Dew Point Humidity Pressure Visibility Wind Dir Wind Speed Gust Speed Precip Events Conditions
12:53 AM 46.9 °F - 44.1 °F 90% 29.70 in 10.0 mi NW 3.5 mph - 0.03 in Rain Light Rain
1:53 AM 46.0 °F 44.8 °F 44.1 °F 93% 29.66 in 10.0 mi NE 3.5 mph - 0.02 in Rain Light Rain
2:53 AM 46.0 °F 43.9 °F 44.1 °F 93% 29.64 in 7.0 mi ESE 4.6 mph - 0.03 in Rain Light Rain
3:53 AM 46.9 °F - 44.1 °F 90% 29.62 in 10.0 mi SSE 6.9 mph - 0.05 in Rain Light Rain
4:53 AM 46.9 °F - 43.0 °F 86% 29.61 in 10.0 mi WSW 4.6 mph - 0.01 in Rain Light Rain
5:53 AM 46.0 °F - 43.0 °F 89% 29.61 in 10.0 mi Calm Calm - 0.01 in   Overcast
6:53 AM 44.1 °F 41.5 °F 41.0 °F 89% 29.63 in 10.0 mi NNW 4.6 mph - 0.01 in   Overcast
7:53 AM 44.1 °F - 39.9 °F 85% 29.64 in 10.0 mi Calm Calm - N/A   Overcast
8:32 AM 42.8 °F 38.0 °F 39.2 °F 87% 29.66 in 2.5 mi NW 8.1 mph - 0.03 in Rain Heavy Rain
8:45 AM 42.8 °F 40.1 °F 39.2 °F 87% 29.66 in 7.0 mi NW 4.6 mph - 0.07 in Rain Light Rain
8:53 AM 43.0 °F 41.3 °F 39.9 °F 89% 29.68 in 10.0 mi NW 3.5 mph - 0.07 in Rain Light Rain
9:11 AM 42.8 °F 40.1 °F 39.2 °F 87% 29.68 in 10.0 mi WNW 4.6 mph - 0.00 in Rain Light Rain
9:29 AM 42.8 °F - 39.2 °F 87% 29.68 in 5.0 mi Calm Calm - 0.01 in Rain Light Rain
9:44 AM 42.8 °F - 39.2 °F 87% 29.69 in 10.0 mi Calm Calm - 0.01 in Rain Light Rain
9:53 AM 44.1 °F - 39.9 °F 85% 29.70 in 10.0 mi Calm Calm - 0.01 in Rain Light Rain
10:53 AM 46.9 °F - 39.0 °F 74% 29.70 in 10.0 mi ESE 3.5 mph - 0.00 in   Scattered Clouds
11:05 AM 48.2 °F - 42.8 °F 82% 29.69 in 10.0 mi NE 5.8 mph - N/A   Partly Cloudy
11:53 AM 51.1 °F - 39.9 °F 66% 29.70 in 10.0 mi Variable 3.5 mph - N/A   Overcast
12:53 PM 50.0 °F - 37.9 °F 63% 29.70 in 10.0 mi NW 4.6 mph - 0.01 in   Mostly Cloudy
1:53 PM 51.1 °F - 39.0 °F 63% 29.69 in 10.0 mi NW 8.1 mph - 0.00 in Rain Light Rain
2:53 PM 51.1 °F - 37.0 °F 59% 29.69 in 10.0 mi Calm Calm - 0.00 in   Partly Cloudy
3:53 PM 48.0 °F - 36.0 °F 63% 29.70 in 10.0 mi WNW 8.1 mph 17.3 mph N/A   Overcast
4:53 PM 48.0 °F - 37.0 °F 66% 29.70 in 10.0 mi NW 10.4 mph - N/A   Overcast
5:53 PM 46.4 °F 42.4 °F 37.4 °F 71% 29.70 in 10.0 mi NE 8.1 mph - N/A   Overcast
6:53 PM 46.0 °F 43.9 °F 36.0 °F 68% 29.71 in 10.0 mi NE 4.6 mph - N/A   Overcast
7:53 PM 45.0 °F 42.6 °F 37.9 °F 76% 29.72 in 10.0 mi WNW 4.6 mph - N/A   Overcast
8:53 PM 44.1 °F - 39.0 °F 82% 29.73 in 10.0 mi Calm Calm - 0.00 in   Overcast
9:53 PM 43.0 °F 40.3 °F 39.0 °F 86% 29.74 in 10.0 mi NW 4.6 mph - N/A   Scattered Clouds
10:53 PM 42.8 °F 40.1 °F 37.4 °F 81% 29.75 in 10.0 mi WNW 4.6 mph - N/A   Overcast
11:53 PM 42.1 °F - 37.9 °F 85% 29.77 in 10.0 mi Calm Calm - 0.01 in   Overcast